Flag for Germany Weather past 2 weeks in Waren (Müritz), Mecklenburg-Western Pomerania, Germany

41 °F

Partly sunny.

Feels Like: 32 °F
Forecast: 37 / 44 °F
Wind: 17 mph from West

Location: Laage

Current Time: Nov 30, 2015 at 3:19:41 PM

Latest Report: Nov 30, 2015 at 2:20 PM

Visibility: N/A

Pressure: 29.77 "Hg

Humidity: 81%

Dew point: 36 °F

Location of Waren (Müritz)Location

Historic Weather in Waren (Müritz) — Graph


Waren (Müritz) temperature yesterday

Maximum temperature yesterday: 48 °F (at 2:20 PM)
Minimum temperature yesterday: 37 °F (at 3:20 AM)
Average temperature yesterday: 44 °F

Past Weeks' High & Low Weather Summary

High55 °F (Nov 18, 1:20 AM)100% (Nov 15, 1:20 PM)30.15 "Hg (Nov 15, 1:20 PM)
Low30 °F (Nov 22, 8:20 PM)52% (Nov 23, 1:20 PM)29.30 "Hg (Nov 18, 4:20 AM)
Average42 °F90%29.67 "Hg
* Reported Nov 15 1:20 PM — Nov 30 1:20 PM, Waren (Müritz), Weather by CustomWeather, © 2015

Note: Actual official high and low records may vary slightly from our data, if they occured in-between our weather recording intervals... More about our weather records


Waren (Müritz) weather history for previous 24 hours

Time TempWeatherWind HumidityBarometerVisibility
1:20 PM
Mon, Nov 30
41 °FScattered clouds.21 mph81%29.77 "HgN/A
12:20 PM41 °FScattered clouds.18 mph81%29.77 "HgN/A
11:20 AM41 °FScattered clouds.15 mph76%29.77 "HgN/A
10:20 AM41 °FPassing clouds.17 mph76%29.74 "HgN/A
9:20 AM39 °FPassing clouds.18 mph81%29.71 "HgN/A
8:20 AM39 °FScattered showers. Scattered clouds.22 mph87%29.68 "HgN/A
7:20 AM39 °FPassing clouds.21 mph81%29.68 "HgN/A
6:20 AM39 °FPassing clouds.17 mph75%29.62 "HgN/A
5:20 AM41 °FPassing clouds.20 mph76%29.59 "HgN/A
4:20 AM41 °FPassing clouds.22 mph81%29.56 "HgN/A
3:20 AM37 °FSprinkles. Partly cloudy.30 mph93%29.50 "Hg4 mi
2:59 AM41 °FThunderstorms. Passing clouds.10 mph87%29.50 "HgN/A
2:20 AM41 °FPassing clouds.21 mph81%29.50 "HgN/A
1:20 AM41 °FThunderstorms. Low clouds.28 mph87%29.47 "Hg1 mi
12:20 AM45 °FPassing clouds.18 mph71%29.42 "HgN/A
11:20 PM
Sun, Nov 29
46 °FPassing clouds.32 mph66%29.42 "HgN/A
10:46 PM48 °FPassing clouds.23 mph71%29.39 "HgN/A
10:20 PM46 °FPassing clouds.22 mph82%29.39 "HgN/A
9:48 PM46 °FPassing clouds.29 mph82%29.36 "HgN/A
9:20 PM48 °FThunderstorms. Partly cloudy.18 mph94%29.33 "Hg5 mi
8:20 PM48 °FPassing clouds.16 mph87%29.36 "HgN/A
7:20 PM46 °FSprinkles. Passing clouds.16 mph87%29.42 "HgN/A
6:20 PM46 °FPartly cloudy.14 mph87%29.45 "HgN/A
5:20 PM46 °FPartly cloudy.12 mph87%29.47 "HgN/A
4:20 PM46 °FPartly cloudy.12 mph82%N/AN/A
Weather by CustomWeather, © 2015

See weather overviewHow to use our weather pages